�������r�C�����j�^�v���󋵏��
Date,Time,5�C6���@���p�r�C��,����,����(m/s)
2022/03/05,00:00,3.8,��쐼,3.3
2022/03/05,00:10,4.1,��쐼,2.9
2022/03/05,00:20,4.1,��쐼,2.8
2022/03/05,00:30,3.9,��쐼,2.0
2022/03/05,00:40,4.2,�쐼,1.5
2022/03/05,00:50,4.1,��쐼,2.2
2022/03/05,01:00,3.9,��쐼,2.8
2022/03/05,01:10,4.1,��,3.2
2022/03/05,01:20,4.0,��,3.3
2022/03/05,01:30,3.8,��,2.6
2022/03/05,01:40,4.0,��,3.1
2022/03/05,01:50,4.1,��,2.5
2022/03/05,02:00,4.1,��,2.2
2022/03/05,02:10,4.0,��쐼,1.5
2022/03/05,02:20,4.0,��쐼,2.6
2022/03/05,02:30,4.0,��,2.3
2022/03/05,02:40,4.0,��쓌,1.1
2022/03/05,02:50,3.9,��쐼,2.0
2022/03/05,03:00,4.0,��쐼,2.8
2022/03/05,03:10,3.9,��쐼,2.3
2022/03/05,03:20,4.0,��쐼,2.9
2022/03/05,03:30,3.9,��,3.4
2022/03/05,03:40,3.9,��,3.2
2022/03/05,03:50,4.1,��,2.9
2022/03/05,04:00,4.2,��,2.5
2022/03/05,04:10,4.1,��,2.8
2022/03/05,04:20,3.9,��,1.9
2022/03/05,04:30,4.1,��,1.7
2022/03/05,04:40,3.9,��쓌,2.3
2022/03/05,04:50,4.0,��쓌,2.3
2022/03/05,05:00,4.1,��쓌,2.0
2022/03/05,05:10,4.0,��쓌,1.7
2022/03/05,05:20,4.0,��,2.5
2022/03/05,05:30,4.1,��쓌,2.2
2022/03/05,05:40,4.2,��쓌,1.9
2022/03/05,05:50,4.0,��,2.6
2022/03/05,06:00,4.0,��,3.0
2022/03/05,06:10,4.0,��쓌,2.6
2022/03/05,06:20,3.8,��쐼,2.6
2022/03/05,06:30,3.9,��,3.5
2022/03/05,06:40,4.1,��쐼,3.8
2022/03/05,06:50,3.8,��쐼,4.6
2022/03/05,07:00,4.0,��,5.0
2022/03/05,07:10,3.9,��쐼,4.6
2022/03/05,07:20,4.1,��,5.3
2022/03/05,07:30,4.1,��,4.6
2022/03/05,07:40,4.1,��,4.0
2022/03/05,07:50,4.0,��,3.0
2022/03/05,08:00,4.0,��,2.6
2022/03/05,08:10,4.3,��,2.3
2022/03/05,08:20,4.2,��,2.3
2022/03/05,08:30,4.1,��쓌,3.0
2022/03/05,08:40,4.2,��쓌,4.1
2022/03/05,08:50,4.0,��쓌,5.6
2022/03/05,09:00,4.0,��쓌,6.6
2022/03/05,09:10,4.1,��쓌,6.8
2022/03/05,09:20,4.0,��쓌,7.8
2022/03/05,09:30,4.2,��쓌,6.9
2022/03/05,09:40,4.0,��쓌,6.5
2022/03/05,09:50,4.2,��쓌,7.5
2022/03/05,10:00,4.0,��쓌,7.7
2022/03/05,10:10,4.0,��쓌,8.6
2022/03/05,10:20,4.0,��쓌,7.2
2022/03/05,10:30,4.2,��쓌,7.8
2022/03/05,10:40,4.0,��쓌,8.5
2022/03/05,10:50,4.1,��쓌,8.7
2022/03/05,11:00,4.1,��쓌,9.5
2022/03/05,11:10,4.0,��쓌,9.5
2022/03/05,11:20,4.0,��쓌,9.4
2022/03/05,11:30,4.1,��쓌,10.8
2022/03/05,11:40,3.8,��쓌,11.9
2022/03/05,11:50,4.0,��쓌,9.8
2022/03/05,12:00,4.1,��쓌,10.9
2022/03/05,12:10,4.1,��쓌,10.5
2022/03/05,12:20,4.0,��쓌,12.1
2022/03/05,12:30,3.9,��쓌,11.7
2022/03/05,12:40,4.2,��쓌,12.0
2022/03/05,12:50,4.2,��쓌,13.0
2022/03/05,13:00,4.3,��,13.3
2022/03/05,13:10,4.1,��,11.8
2022/03/05,13:20,4.1,��,12.7
2022/03/05,13:30,4.2,��쓌,12.4
2022/03/05,13:40,4.1,��쓌,12.8
2022/03/05,13:50,4.2,��,12.4
2022/03/05,14:00,4.2,��쓌,13.8
2022/03/05,14:10,4.1,��,13.6
2022/03/05,14:20,4.0,��,13.3
2022/03/05,14:30,4.0,��쓌,14.9
2022/03/05,14:40,3.9,��쓌,14.1
2022/03/05,14:50,4.0,��,12.0
2022/03/05,15:00,4.0,��,12.4
2022/03/05,15:10,4.2,��쓌,10.5
2022/03/05,15:20,4.0,��,11.0
2022/03/05,15:30,4.1,��,8.7
2022/03/05,15:40,4.1,��,9.5
2022/03/05,15:50,3.9,��,8.7
2022/03/05,16:00,3.8,��,7.6
2022/03/05,16:10,4.2,��,6.4
2022/03/05,16:20,4.1,��쐼,5.1
2022/03/05,16:30,4.0,��쐼,6.4
2022/03/05,16:40,4.0,�쐼,5.4
2022/03/05,16:50,4.1,���k��,6.5
2022/03/05,17:00,4.0,��,11.3
2022/03/05,17:10,4.1,��,9.6
2022/03/05,17:20,4.0,��,8.3
2022/03/05,17:30,4.0,��,11.3
2022/03/05,17:40,4.1,��,13.0
2022/03/05,17:50,4.0,��,11.1
2022/03/05,18:00,4.2,��,11.8
2022/03/05,18:10,4.1,��,11.3
2022/03/05,18:20,4.0,��,10.8
2022/03/05,18:30,3.9,���k��,7.6
2022/03/05,18:40,4.1,���k��,8.6
2022/03/05,18:50,4.0,���k��,8.7
2022/03/05,19:00,3.9,���k��,7.8
2022/03/05,19:10,4.2,���k��,7.2
2022/03/05,19:20,4.1,���k��,6.6
2022/03/05,19:30,4.0,���k��,4.4
2022/03/05,19:40,4.1,���k��,7.4
2022/03/05,19:50,4.0,���k��,8.3
2022/03/05,20:00,4.1,�k��,5.9
2022/03/05,20:10,4.3,�k��,9.0
2022/03/05,20:20,4.1,���k��,7.3
2022/03/05,20:30,4.0,���k��,6.7
2022/03/05,20:40,4.2,���k��,6.3
2022/03/05,20:50,4.0,���k��,5.8
2022/03/05,21:00,3.9,���k��,10.2
2022/03/05,21:10,4.1,���k��,10.8
2022/03/05,21:20,4.1,���k��,10.6
2022/03/05,21:30,4.1,���k��,10.3
2022/03/05,21:40,4.1,���k��,11.8
2022/03/05,21:50,4.0,��,12.5
2022/03/05,22:00,3.9,��,14.1
2022/03/05,22:10,4.0,���k��,11.6
2022/03/05,22:20,4.1,��,10.2
2022/03/05,22:30,4.0,���k��,11.6
2022/03/05,22:40,4.0,���k��,11.7
2022/03/05,22:50,4.0,��,12.7
2022/03/05,23:00,4.0,��,14.1
2022/03/05,23:10,4.2,���k��,9.6
2022/03/05,23:20,4.0,���k��,14.1
2022/03/05,23:30,4.0,��,16.0
2022/03/05,23:40,3.9,���k��,12.1
2022/03/05,23:50,4.1,���k��,16.3
